, AK

(GMT )
Golovin

Weather History for PAGL - November, 2013

Change the Weather History Date:

Monday, November 25, 2013

  Actual Average Record
Temperature  
Mean Temperature 14 °F -  
Max Temperature 19 °F - - ()
Min Temperature 8 °F - - ()
Degree Days  
Heating Degree Days 52    
Moisture  
Dew Point 6 °F    
Average Humidity 74    
Maximum Humidity 92    
Minimum Humidity 44    
Precipitation  
Precipitation 0.00 in - - ()
Sea Level Pressure  
Sea Level Pressure 29.97 in    
Wind  
Wind Speed 11 mph (NNW)    
Max Wind Speed 20 mph    
Max Gust Speed 25 mph    
Visibility 10 miles    
Events      
T = Trace of Precipitation, MM = Missing Value Source: NWS Daily Summary

Daily Weather History Graph

Daily Weather History Graph

Search for Another Location

Airport or City:

Trip Planner

Search our weather history database for the weather conditions in past years. The results will help you decide how hot, cold, wet, or windy it might be!

Date:

Astronomy

Nov. 25, 2013 Rise Set
Actual Time 10:59 AM AKST 4:18 PM AKST
Civil Twilight 9:50 AM AKST 5:27 PM AKST
Nautical Twilight 8:45 AM AKST 6:32 PM AKST
Astronomical Twilight 7:46 AM AKST 7:31 PM AKST
Moon 12:27 AM AKST (11/25) 2:38 PM AKST (11/25)
Length of Visible Light 7h 37m
Length of Day
5h 19m
Waning Gibbous, 49% of the Moon is Illuminated
Nov 25
Waning Gibbous
Dec 2
New
Dec 9
First Quarter
Dec 17
Full
Dec 25
Last Quarter

Hourly Weather History & Observations

Time (AKST) Temp. Windchill Dew Point Humidity Pressure Visibility Wind Dir Wind Speed Gust Speed Precip Events Conditions
12:16 AM 15.8 °F 3.4 °F 3.2 °F 58% 30.02 in 10.0 mi North 10.4 mph 18.4 mph N/A   Clear
12:36 AM 15.8 °F 2.1 °F 3.2 °F 58% 30.01 in 10.0 mi NNE 12.7 mph 17.3 mph N/A   Clear
12:56 AM 15.8 °F -0.6 °F 1.4 °F 53% 30.00 in 10.0 mi North 18.4 mph 24.2 mph N/A   Clear
1:16 AM 15.8 °F 0.3 °F 3.2 °F 58% 30.01 in 10.0 mi North 16.1 mph 24.2 mph N/A   Clear
1:36 AM 12.2 °F -1.8 °F -2.2 °F 53% 30.00 in 10.0 mi NNE 11.5 mph 17.3 mph N/A   Clear
1:56 AM 10.4 °F -6.0 °F -7.6 °F 44% 30.00 in 10.0 mi NNE 15.0 mph 18.4 mph N/A   Clear
2:16 AM 12.2 °F 1.7 °F 5.0 °F 73% 30.00 in 10.0 mi NNW 6.9 mph 24.2 mph N/A   Clear
2:36 AM 8.6 °F 0.1 °F -0.4 °F 67% 30.00 in 10.0 mi NW 4.6 mph - N/A   Clear
2:56 AM 8.6 °F -2.6 °F -2.2 °F 62% 30.00 in 10.0 mi NNW 6.9 mph - N/A   Clear
3:16 AM 10.4 °F 2.2 °F 3.2 °F 73% 29.99 in 10.0 mi WNW 4.6 mph - N/A   Clear
3:36 AM 17.6 °F 3.7 °F 10.4 °F 73% 29.99 in 10.0 mi NE 13.8 mph 23.0 mph N/A   Clear
3:56 AM 15.8 °F 2.1 °F -2.2 °F 45% 29.98 in 10.0 mi NNE 12.7 mph 24.2 mph N/A   Partly Cloudy
4:16 AM 15.8 °F -0.6 °F 6.8 °F 68% 29.98 in 10.0 mi NNE 18.4 mph 24.2 mph N/A   Mostly Cloudy
4:36 AM 15.8 °F 2.1 °F 3.2 °F 58% 29.98 in 10.0 mi North 12.7 mph 23.0 mph N/A   Partly Cloudy
4:56 AM 15.8 °F 2.7 °F 3.2 °F 58% 29.98 in 10.0 mi North 11.5 mph 17.3 mph N/A   Clear
5:16 AM 15.8 °F -0.2 °F 3.2 °F 58% 29.97 in 10.0 mi NNE 17.3 mph - N/A   Partly Cloudy
5:36 AM 17.6 °F 8.2 °F 3.2 °F 53% 29.97 in 10.0 mi NE 6.9 mph 21.9 mph N/A   Scattered Clouds
5:56 AM 19.4 °F 3.6 °F 5.0 °F 54% 29.96 in 10.0 mi NNE 19.6 mph 25.3 mph N/A   Scattered Clouds
6:16 AM 14.0 °F -3.0 °F 3.2 °F 62% 29.97 in 10.0 mi North 18.4 mph 24.2 mph N/A   Clear
6:36 AM 12.2 °F -3.1 °F 1.4 °F 62% 29.98 in 10.0 mi NNW 13.8 mph - N/A   Scattered Clouds
6:56 AM 15.8 °F 2.7 °F 6.8 °F 68% 29.97 in 10.0 mi North 11.5 mph - N/A   Scattered Clouds
7:16 AM 15.8 °F 3.4 °F 5.0 °F 62% 29.97 in 10.0 mi North 10.4 mph 18.4 mph N/A   Mostly Cloudy
7:36 AM 15.8 °F 3.4 °F 3.2 °F 58% 29.97 in 10.0 mi North 10.4 mph 20.7 mph N/A   Overcast
7:56 AM 8.6 °F -5.5 °F 3.2 °F 79% 29.97 in 10.0 mi NW 10.4 mph - N/A   Overcast
8:16 AM 10.4 °F -1.5 °F 5.0 °F 79% 29.97 in 10.0 mi NW 8.1 mph - N/A   Overcast
8:36 AM 10.4 °F -1.5 °F 5.0 °F 79% 29.97 in 10.0 mi WNW 8.1 mph - N/A   Mostly Cloudy
8:56 AM 8.6 °F -4.7 °F 5.0 °F 85% 29.96 in 10.0 mi NW 9.2 mph - N/A   Partly Cloudy
9:16 AM 8.6 °F -3.7 °F 6.8 °F 92% 29.97 in 10.0 mi NW 8.1 mph - N/A   Mostly Cloudy
9:36 AM 8.6 °F -2.6 °F 6.8 °F 92% 29.97 in 10.0 mi NW 6.9 mph - N/A   Overcast
9:56 AM 10.4 °F -2.4 °F 3.2 °F 73% 29.97 in 10.0 mi WNW 9.2 mph - N/A   Overcast
10:16 AM 15.8 °F 8.6 °F 8.6 °F 73% 29.97 in 10.0 mi NW 4.6 mph - N/A   Overcast
10:36 AM 17.6 °F 6.4 °F 10.4 °F 73% 29.97 in 10.0 mi NNE 9.2 mph - N/A   Overcast
10:56 AM 14.0 °F 2.9 °F -0.4 °F 53% 29.97 in 10.0 mi NW 8.1 mph - N/A   Overcast
11:16 AM 12.2 °F -0.2 °F 5.0 °F 73% 29.96 in 10.0 mi NW 9.2 mph - N/A   Overcast
11:36 AM 12.2 °F 0.7 °F 8.6 °F 85% 29.97 in 10.0 mi NW 8.1 mph - N/A   Overcast
11:56 AM 12.2 °F 0.7 °F 8.6 °F 85% 29.97 in 10.0 mi NW 8.1 mph - N/A   Overcast
12:16 PM 12.2 °F -0.2 °F 8.6 °F 85% 29.97 in 10.0 mi NW 9.2 mph - N/A   Mostly Cloudy
12:36 PM 12.2 °F 0.7 °F 8.6 °F 85% 29.97 in 10.0 mi WNW 8.1 mph - N/A   Overcast
12:56 PM 12.2 °F -0.2 °F 8.6 °F 85% 29.96 in 10.0 mi WNW 9.2 mph - N/A   Overcast
1:16 PM 12.2 °F -0.2 °F 8.6 °F 85% 29.96 in 10.0 mi WNW 9.2 mph - N/A   Overcast
1:36 PM 12.2 °F -1.0 °F 8.6 °F 85% 29.96 in 10.0 mi WNW 10.4 mph - N/A   Overcast
1:56 PM 12.2 °F -1.0 °F 8.6 °F 85% 29.95 in 10.0 mi WNW 10.4 mph - N/A   Overcast
2:16 PM 12.2 °F -0.2 °F 8.6 °F 85% 29.95 in 10.0 mi WNW 9.2 mph - N/A   Mostly Cloudy
2:36 PM 12.2 °F -0.2 °F 6.8 °F 79% 29.94 in 10.0 mi NW 9.2 mph - N/A   Partly Cloudy
2:56 PM 10.4 °F -3.3 °F 5.0 °F 79% 29.95 in 10.0 mi WNW 10.4 mph - N/A   Scattered Clouds
3:16 PM 10.4 °F -4.1 °F 6.8 °F 85% 29.94 in 10.0 mi WNW 11.5 mph - N/A   Overcast
3:36 PM 10.4 °F -2.4 °F 6.8 °F 85% 29.94 in 10.0 mi WNW 9.2 mph - N/A   Overcast
3:56 PM 10.4 °F -3.3 °F 5.0 °F 79% 29.95 in 10.0 mi WNW 10.4 mph - N/A   Overcast
4:16 PM 12.2 °F -1.0 °F 6.8 °F 79% 29.95 in 10.0 mi WNW 10.4 mph - N/A   Overcast
4:36 PM 12.2 °F -1.0 °F 6.8 °F 79% 29.95 in 10.0 mi NW 10.4 mph - N/A   Overcast
4:56 PM 12.2 °F -1.0 °F 8.6 °F 85% 29.95 in 10.0 mi WNW 10.4 mph - N/A   Overcast
5:16 PM 12.2 °F -1.8 °F 8.6 °F 85% 29.95 in 10.0 mi NW 11.5 mph - N/A   Overcast
5:36 PM 12.2 °F -1.0 °F 6.8 °F 79% 29.95 in 10.0 mi NW 10.4 mph - N/A   Overcast
5:56 PM 12.2 °F -1.8 °F 6.8 °F 79% 29.95 in 10.0 mi NW 11.5 mph - N/A   Overcast
6:16 PM 12.2 °F -1.0 °F 8.6 °F 85% 29.95 in 10.0 mi WNW 10.4 mph - N/A   Overcast
6:36 PM 12.2 °F -1.8 °F 8.6 °F 85% 29.96 in 10.0 mi NW 11.5 mph - N/A   Overcast
6:56 PM 12.2 °F -1.8 °F 6.8 °F 79% 29.96 in 10.0 mi WNW 11.5 mph - N/A   Overcast
7:16 PM 12.2 °F -1.8 °F 6.8 °F 79% 29.96 in 10.0 mi NW 11.5 mph - N/A   Overcast
7:36 PM 12.2 °F -1.8 °F 8.6 °F 85% 29.96 in 10.0 mi NW 11.5 mph - N/A   Overcast
7:56 PM 12.2 °F -1.8 °F 8.6 °F 85% 29.96 in 10.0 mi NW 11.5 mph - N/A   Overcast
8:16 PM 14.0 °F 0.5 °F 8.6 °F 79% 29.97 in 10.0 mi NW 11.5 mph - N/A   Overcast
8:36 PM 14.0 °F 1.2 °F 8.6 °F 79% 29.97 in 10.0 mi NW 10.4 mph - N/A   Overcast
8:56 PM 14.0 °F 1.2 °F 8.6 °F 79% 29.97 in 10.0 mi NW 10.4 mph - N/A   Overcast
9:16 PM 12.2 °F -1.0 °F 6.8 °F 79% 29.97 in 10.0 mi NW 10.4 mph - N/A   Overcast
9:36 PM 12.2 °F -2.5 °F 8.6 °F 85% 29.97 in 10.0 mi NW 12.7 mph - N/A   Overcast
9:56 PM 14.0 °F 0.5 °F 8.6 °F 79% 29.97 in 10.0 mi NW 11.5 mph - N/A   Overcast
10:16 PM 14.0 °F 1.2 °F 8.6 °F 79% 29.98 in 10.0 mi NW 10.4 mph - N/A   Overcast
10:36 PM 14.0 °F 0.5 °F 10.4 °F 86% 29.98 in 10.0 mi NW 11.5 mph - N/A   Overcast
10:56 PM 15.8 °F 3.4 °F 10.4 °F 79% 29.99 in 10.0 mi NW 10.4 mph - N/A   Overcast
11:16 PM 15.8 °F 3.4 °F 10.4 °F 79% 29.99 in 10.0 mi NW 10.4 mph - N/A   Overcast
11:36 PM 15.8 °F 3.4 °F 10.4 °F 79% 29.99 in 10.0 mi NW 10.4 mph - N/A   Overcast
11:56 PM 15.8 °F 4.2 °F 10.4 °F 79% 29.99 in 10.0 mi NW 9.2 mph - N/A   Overcast